Location: *
(49.8044°N, 4.0558°E)
Time: 03:49:57
(UTC+00:00)

Cosmos 1703 - Pass Details

Date: 09 April 2020
Orbit: 523 x 541 km, 82.5° (Epoch: 06 June)

Event Time Altitude Azimuth Distance (km) Brightness Sun altitude
Rises 18:57:09 0° 351° (N) 2,709 7.3 -5.3°
Reaches altitude 10° 18:59:20 10° 354° (N) 1,814 6.3 -5.6°
Maximum altitude 19:03:19 70° 78° (ENE) 581 3.3 -6.2°
Drops below altitude 10° 19:07:16 10° 163° (SSE) 1,803 5.6 -6.8°
Sets 19:09:26 0° 166° (SSE) 2,691 6.5 -7.1°
